User: anonymous   Login
Location: Aghk�ilisa
(40.0189°N, 45.0097°E)
Time: 14:10:29
(UTC+00:00)
Language:

Gbstr 26 Del rocket - Orbit

View from above orbital plane
View from above orbital plane
View from above satellite
View from above satellite

Ground track
Ground track

The orbit data is extracted from the following two-line orbital elements,

1 25876U 99041E   19342.15352067 -.00000176  00000-0  11406-4 0  9990
2 25876  51.7649 349.4370 0531356 143.3325 220.5224 14.04378221 41639
Epoch (UTC): 08 December 2019 03:41:04
Eccentricity: 0.0531356
inclination: 51.7649°
perigee height: 493 km
apogee height: 1264 km
right ascension of ascending node: 349.4370°
argument of perigee: 143.3325°
revolutions per day: 14.04378221
mean anomaly at epoch: 220.5224°
orbit number at epoch: 4163

The dashed part of the orbit path shows where the satellite is in the earth's shadow,  

DLR